VLG63EH LMML-LEBL

Flight info

Callsign VLG63EH
Flight time N/A
Altitude 34000
Route GZO M622 SOPIR DCT ADEXI DCT ADAMI DCT ALG DCT GINOX DCT KIFMI/N0411F280 DCT ELVOP DCT MUREN DCT CHELY DCT VERSO
Aircraft A319/M-SDE3FGHIRWY/LB1

Departure

Time 2026-05-06 19:15
Airport Malta International Airport (LMML)

Arrival

Time N/A
Airport Josep Tarradellas Barcelona-El Prat Airport (LEBL)
Time Latitude Longitude Altitude Speed Heading
2026-05-06 18:50 35.84921 14.49395 259 ft 0 kts 358°
2026-05-06 19:04 35.84912 14.49395 259 ft 2 kts 358°
2026-05-06 19:04 35.84897 14.49396 259 ft 2 kts 358°
2026-05-06 19:05 35.84880 14.49397 259 ft 2 kts 358°
2026-05-06 19:05 35.84864 14.49398 259 ft 2 kts 357°
2026-05-06 19:05 35.84847 14.49399 259 ft 2 kts 355°
2026-05-06 19:05 35.84831 14.49402 259 ft 2 kts 345°
2026-05-06 19:06 35.84816 14.49412 259 ft 2 kts 320°
2026-05-06 19:06 35.84805 14.49426 259 ft 2 kts 313°
2026-05-06 19:06 35.84796 14.49437 259 ft 1 kts 315°
2026-05-06 19:06 35.84797 14.49436 259 ft 1 kts 317°
2026-05-06 19:07 35.84798 14.49434 259 ft 0 kts 317°
2026-05-06 19:07 35.84816 14.49414 259 ft 7 kts 317°
2026-05-06 19:07 35.84877 14.49339 259 ft 17 kts 314°
2026-05-06 19:08 35.84929 14.49180 258 ft 21 kts 240°
2026-05-06 19:08 35.84914 14.49074 258 ft 17 kts 316°
2026-05-06 19:08 35.84990 14.48914 259 ft 27 kts 282°
2026-05-06 19:08 35.85050 14.48659 265 ft 29 kts 296°
2026-05-06 19:09 35.85192 14.48445 272 ft 36 kts 315°
2026-05-06 19:09 35.85389 14.48208 272 ft 43 kts 314°
2026-05-06 19:09 35.85619 14.47924 272 ft 50 kts 317°
2026-05-06 19:09 35.85865 14.47608 272 ft 47 kts 315°
2026-05-06 19:10 35.85961 14.47490 272 ft 12 kts 316°
2026-05-06 19:10 35.86050 14.47501 272 ft 16 kts 94°
2026-05-06 19:10 35.85947 14.47541 272 ft 23 kts 167°
2026-05-06 19:10 35.85808 14.47492 272 ft 14 kts 179°
2026-05-06 19:11 35.85768 14.47438 272 ft 19 kts 229°
2026-05-06 19:11 35.85657 14.47244 273 ft 35 kts 241°
2026-05-06 19:11 35.85515 14.47018 282 ft 40 kts 188°
2026-05-06 19:11 35.85387 14.46809 299 ft 37 kts 237°
2026-05-06 19:12 35.85206 14.46516 310 ft 49 kts 233°
2026-05-06 19:12 35.84981 14.46117 309 ft 63 kts 233°
2026-05-06 19:12 35.84814 14.45969 308 ft 13 kts 159°
2026-05-06 19:12 35.84750 14.46040 308 ft 10 kts 72°
2026-05-06 19:13 35.84774 14.46070 308 ft 0 kts 50°
2026-05-06 19:14 35.84790 14.46096 308 ft 25 kts 54°
2026-05-06 19:14 35.85068 14.46574 310 ft 108 kts 51°
2026-05-06 19:14 35.85647 14.47542 364 ft 166 kts 59°
2026-05-06 19:15 35.86484 14.48751 727 ft 200 kts 54°
2026-05-06 19:15 35.87595 14.50069 1168 ft 241 kts 47°
2026-05-06 19:15 35.89073 14.51329 1709 ft 276 kts 36°
2026-05-06 19:15 35.90959 14.51977 2845 ft 286 kts
2026-05-06 19:16 35.92897 14.51564 4049 ft 291 kts 340°
2026-05-06 19:16 35.94624 14.50154 4963 ft 299 kts 311°
2026-05-06 19:16 35.95687 14.48009 6015 ft 291 kts 283°
2026-05-06 19:16 35.95908 14.45598 7047 ft 280 kts 259°
2026-05-06 19:17 35.95600 14.43245 8038 ft 277 kts 254°
2026-05-06 19:17 35.95396 14.40873 9041 ft 281 kts 266°
2026-05-06 19:17 35.95665 14.38460 10042 ft 288 kts 280°
2026-05-06 19:17 35.96354 14.36056 10650 ft 309 kts 289°
2026-05-06 19:18 35.97359 14.33601 11017 ft 333 kts 294°
2026-05-06 19:18 35.98557 14.31084 11659 ft 344 kts 296°
2026-05-06 19:18 35.99810 14.28563 12599 ft 345 kts 296°
2026-05-06 19:18 36.01065 14.26037 13543 ft 346 kts 295°
2026-05-06 19:19 36.02319 14.23494 14428 ft 348 kts 297°
2026-05-06 19:19 36.03782 14.21080 15244 ft 355 kts 306°
2026-05-06 19:19 36.05576 14.18941 16067 ft 363 kts 315°
2026-05-06 19:19 36.07636 14.17082 16876 ft 368 kts 319°
2026-05-06 19:20 36.09724 14.15253 17684 ft 369 kts 319°
2026-05-06 19:20 36.11820 14.13402 18435 ft 372 kts 319°
2026-05-06 19:20 36.13931 14.11528 19025 ft 376 kts 319°
2026-05-06 19:20 36.16075 14.09620 19623 ft 381 kts 319°
2026-05-06 19:21 36.18232 14.07701 20224 ft 385 kts 319°
2026-05-06 19:21 36.20425 14.05750 20820 ft 389 kts 320°
2026-05-06 19:21 36.22637 14.03782 21407 ft 394 kts 320°
2026-05-06 19:21 36.24877 14.01790 22001 ft 398 kts 320°
2026-05-06 19:22 36.27136 13.99779 22586 ft 402 kts 320°
2026-05-06 19:22 36.29421 13.97745 23163 ft 406 kts 320°
2026-05-06 19:22 36.31728 13.95689 23703 ft 410 kts 320°
2026-05-06 19:22 36.34039 13.93631 24339 ft 409 kts 320°
2026-05-06 19:23 36.36342 13.91578 24980 ft 407 kts 320°
2026-05-06 19:23 36.38650 13.89519 25536 ft 408 kts 320°
2026-05-06 19:23 36.40957 13.87459 26114 ft 409 kts 320°
2026-05-06 19:23 36.43260 13.85400 26680 ft 408 kts 320°
2026-05-06 19:24 36.45565 13.83339 27223 ft 409 kts 320°
2026-05-06 19:24 36.47876 13.81271 27746 ft 409 kts 320°
2026-05-06 19:24 36.50183 13.79205 28271 ft 410 kts 320°
2026-05-06 19:24 36.52501 13.77127 28764 ft 410 kts 320°
2026-05-06 19:25 36.54812 13.75055 29249 ft 410 kts 319°
2026-05-06 19:25 36.57128 13.72977 29714 ft 411 kts 319°
2026-05-06 19:25 36.59451 13.70891 30129 ft 412 kts 319°
2026-05-06 19:25 36.61776 13.68803 30535 ft 412 kts 319°
2026-05-06 19:26 36.64100 13.66715 30955 ft 412 kts 319°
2026-05-06 19:26 36.66425 13.64625 31429 ft 410 kts 318°
2026-05-06 19:26 36.68725 13.62558 32010 ft 406 kts 318°
2026-05-06 19:26 36.70999 13.60513 32636 ft 400 kts 317°
2026-05-06 19:27 36.73237 13.58499 33246 ft 395 kts 317°
2026-05-06 19:27 36.75450 13.56503 33758 ft 390 kts 316°
2026-05-06 19:27 36.77638 13.54528 33916 ft 386 kts 316°
2026-05-06 19:28 36.81978 13.50592 33924 ft 386 kts 316°
2026-05-06 19:28 36.86299 13.46670 33924 ft 387 kts 316°
2026-05-06 19:29 36.90651 13.42717 33924 ft 387 kts 316°
2026-05-06 19:29 36.95015 13.38748 33926 ft 388 kts 316°
2026-05-06 19:30 36.99375 13.34778 33925 ft 388 kts 316°
2026-05-06 19:30 37.03741 13.30797 33922 ft 388 kts 316°
2026-05-06 19:31 37.08100 13.26816 33924 ft 388 kts 316°
2026-05-06 19:31 37.14650 13.20824 33923 ft 389 kts 316°
2026-05-06 19:32 37.19050 13.16792 33916 ft 390 kts 316°
2026-05-06 19:32 37.23429 13.12773 33912 ft 391 kts 316°
2026-05-06 19:33 37.27796 13.08760 33911 ft 392 kts 316°
2026-05-06 19:33 37.30742 13.06041 33912 ft 392 kts 315°